Time,TemperatureF,DewpointF,PressureIn,WindDirection,WindDirectionDegrees,WindSpeedMPH,WindSpeedGustMPH,Humidity,HourlyPrecipIn,Conditions,Clouds,dailyrainin,SoftwareType,DateUTC
2013-03-21 00:03:00,27.0,9.0,-100.00,NNE,30,6.0,12.0,46,0.00,,,-99.99,,2013-03-21 04:03:00,
2013-03-21 00:13:00,27.0,9.0,-100.00,NNE,20,5.0,11.0,45,0.00,,,-99.99,,2013-03-21 04:13:00,
2013-03-21 00:23:00,27.0,9.0,-100.00,North,0,4.0,9.0,46,0.00,,,-99.99,,2013-03-21 04:23:00,
2013-03-21 00:33:00,27.0,9.0,-100.00,NE,35,4.0,8.0,47,0.00,,,-99.99,,2013-03-21 04:33:00,
2013-03-21 00:43:00,27.0,9.0,-100.00,NE,35,4.0,7.0,46,0.00,,,-99.99,,2013-03-21 04:43:00,
2013-03-21 00:53:00,27.0,9.0,-100.00,NNE,25,4.0,6.0,47,0.00,,,-99.99,,2013-03-21 04:53:00,
2013-03-21 01:03:00,27.0,9.0,-100.00,NNE,25,4.0,7.0,47,0.00,,,-99.99,,2013-03-21 05:03:00,
2013-03-21 01:12:00,27.0,9.0,-100.00,NE,50,2.0,6.0,48,0.00,,,-99.99,,2013-03-21 05:12:00,
2013-03-21 01:22:00,27.0,9.0,-100.00,North,5,3.0,7.0,47,0.00,,,-99.99,,2013-03-21 05:22:00,
2013-03-21 01:33:00,27.0,9.0,-100.00,NNE,25,3.0,7.0,47,0.00,,,-99.99,,2013-03-21 05:33:00,
2013-03-21 01:43:00,27.0,10.0,-100.00,NE,35,3.0,7.0,48,0.00,,,-99.99,,2013-03-21 05:43:00,
2013-03-21 01:52:00,26.0,10.0,-100.00,ENE,65,9.0,16.0,49,0.00,,,-99.99,,2013-03-21 05:52:00,
2013-03-21 02:03:00,26.0,10.0,-100.00,NE,50,5.0,11.0,49,0.00,,,-99.99,,2013-03-21 06:03:00,
2013-03-21 02:12:00,26.0,9.0,-100.00,NE,45,9.0,12.0,48,0.00,,,-99.99,,2013-03-21 06:12:00,
2013-03-21 02:22:00,26.0,9.0,-100.00,NNE,30,6.0,10.0,48,0.00,,,-99.99,,2013-03-21 06:22:00,
2013-03-21 02:32:00,26.0,10.0,-100.00,NE,45,7.0,13.0,50,0.00,,,-99.99,,2013-03-21 06:32:00,
2013-03-21 02:42:00,26.0,10.0,-100.00,ENE,75,5.0,8.0,51,0.00,,,-99.99,,2013-03-21 06:42:00,
2013-03-21 02:52:00,26.0,10.0,-100.00,ENE,75,7.0,15.0,51,0.00,,,-99.99,,2013-03-21 06:52:00,
2013-03-21 03:02:00,26.0,10.0,-100.00,ENE,65,6.0,12.0,50,0.00,,,-99.99,,2013-03-21 07:02:00,
2013-03-21 03:12:00,26.0,10.0,-100.00,NE,50,6.0,14.0,51,0.00,,,-99.99,,2013-03-21 07:12:00,
2013-03-21 03:22:00,26.0,10.0,-100.00,NE,40,4.0,10.0,51,0.00,,,-99.99,,2013-03-21 07:22:00,
2013-03-21 03:32:00,26.0,10.0,-100.00,NE,40,6.0,11.0,50,0.00,,,-99.99,,2013-03-21 07:32:00,
2013-03-21 03:42:00,26.0,9.0,-100.00,East,85,9.0,16.0,49,0.00,,,-99.99,,2013-03-21 07:42:00,
2013-03-21 03:52:00,26.0,9.0,-100.00,NE,50,7.0,15.0,49,0.00,,,-99.99,,2013-03-21 07:52:00,
2013-03-21 04:02:00,25.0,8.0,-100.00,NNE,15,11.0,16.0,47,0.00,,,-99.99,,2013-03-21 08:02:00,
2013-03-21 04:13:00,25.0,7.0,-100.00,NE,45,9.0,19.0,46,0.00,,,-99.99,,2013-03-21 08:13:00,
2013-03-21 04:23:00,25.0,7.0,-100.00,NE,35,7.0,19.0,45,0.00,,,-99.99,,2013-03-21 08:23:00,
2013-03-21 04:33:00,25.0,8.0,-100.00,NE,45,7.0,18.0,47,0.00,,,-99.99,,2013-03-21 08:33:00,
2013-03-21 04:42:00,25.0,7.0,-100.00,NNE,30,6.0,16.0,47,0.00,,,-99.99,,2013-03-21 08:42:00,
2013-03-21 04:52:00,25.0,7.0,-100.00,NE,35,7.0,12.0,46,0.00,,,-99.99,,2013-03-21 08:52:00,
2013-03-21 05:02:00,24.0,7.0,-100.00,NE,40,7.0,15.0,46,0.00,,,-99.99,,2013-03-21 09:02:00,
2013-03-21 05:11:00,24.0,7.0,-100.00,NE,45,9.0,14.0,46,0.00,,,-99.99,,2013-03-21 09:11:00,
2013-03-21 05:21:00,24.0,7.0,-100.00,NE,40,5.0,14.0,47,0.00,,,-99.99,,2013-03-21 09:21:00,
2013-03-21 05:33:00,24.0,8.0,-100.00,NNE,25,3.0,9.0,49,0.00,,,-99.99,,2013-03-21 09:33:00,
2013-03-21 05:43:00,24.0,8.0,-100.00,NE,45,4.0,10.0,49,0.00,,,-99.99,,2013-03-21 09:43:00,
2013-03-21 05:53:00,24.0,8.0,-100.00,ENE,70,2.0,6.0,50,0.00,,,-99.99,,2013-03-21 09:53:00,
2013-03-21 06:03:00,24.0,8.0,-100.00,NE,45,8.0,12.0,49,0.00,,,-99.99,,2013-03-21 10:03:00,
2013-03-21 06:12:00,24.0,8.0,-100.00,NE,45,7.0,13.0,50,0.00,,,-99.99,,2013-03-21 10:12:00,
2013-03-21 06:23:00,24.0,8.0,-100.00,NE,45,7.0,10.0,50,0.00,,,-99.99,,2013-03-21 10:23:00,
2013-03-21 06:34:00,24.0,9.0,-100.00,NE,45,6.0,12.0,51,0.00,,,-99.99,,2013-03-21 10:34:00,
2013-03-21 06:42:00,24.0,9.0,-100.00,NE,55,5.0,14.0,52,0.00,,,-99.99,,2013-03-21 10:42:00,
2013-03-21 06:53:00,24.0,9.0,-100.00,NNE,15,5.0,11.0,52,0.00,,,-99.99,,2013-03-21 10:53:00,
2013-03-21 07:03:00,24.0,9.0,-100.00,NE,40,7.0,11.0,52,0.00,,,-99.99,,2013-03-21 11:03:00,
2013-03-21 07:12:00,24.0,9.0,-100.00,NNE,30,3.0,10.0,54,0.00,,,-99.99,,2013-03-21 11:12:00,
2013-03-21 07:22:00,24.0,10.0,-100.00,NE,35,6.0,11.0,55,0.00,,,-99.99,,2013-03-21 11:22:00,
2013-03-21 07:33:00,23.0,10.0,-100.00,ENE,60,4.0,9.0,56,0.00,,,-99.99,,2013-03-21 11:33:00,
2013-03-21 07:43:00,23.0,11.0,-100.00,East,85,8.0,14.0,57,0.00,,,-99.99,,2013-03-21 11:43:00,
2013-03-21 07:52:00,23.0,11.0,-100.00,ENE,65,7.0,15.0,58,0.00,,,-99.99,,2013-03-21 11:52:00,
2013-03-21 08:03:00,23.0,11.0,-100.00,NE,55,6.0,15.0,58,0.00,,,-99.99,,2013-03-21 12:03:00,
2013-03-21 08:12:00,23.0,11.0,-100.00,NE,50,7.0,12.0,57,0.00,,,-99.99,,2013-03-21 12:12:00,
2013-03-21 08:22:00,23.0,10.0,-100.00,ENE,65,9.0,13.0,57,0.00,,,-99.99,,2013-03-21 12:22:00,
2013-03-21 08:33:00,23.0,10.0,-100.00,ENE,70,9.0,15.0,57,0.00,,,-99.99,,2013-03-21 12:33:00,
2013-03-21 08:42:00,23.0,10.0,-100.00,NE,40,9.0,16.0,57,0.00,,,-99.99,,2013-03-21 12:42:00,
2013-03-21 08:52:00,23.0,10.0,-100.00,NE,50,7.0,17.0,58,0.00,,,-99.99,,2013-03-21 12:52:00,
2013-03-21 09:03:00,23.0,11.0,-100.00,NE,45,10.0,16.0,58,0.00,,,-99.99,,2013-03-21 13:03:00,
2013-03-21 09:12:00,22.0,11.0,-100.00,NE,50,9.0,14.0,59,0.00,,,-99.99,,2013-03-21 13:12:00,
2013-03-21 09:22:00,23.0,11.0,-100.00,ENE,70,8.0,16.0,59,0.00,,,-99.99,,2013-03-21 13:22:00,
2013-03-21 09:32:00,23.0,10.0,-100.00,NE,50,7.0,15.0,57,0.00,,,-99.99,,2013-03-21 13:32:00,
2013-03-21 09:42:00,23.0,10.0,-100.00,ENE,70,6.0,12.0,56,0.55,,,-99.99,,2013-03-21 13:42:00,
2013-03-21 09:52:00,23.0,9.0,-100.00,East,80,9.0,17.0,54,0.00,,,-99.99,,2013-03-21 13:52:00,
2013-03-21 10:02:00,24.0,9.0,-100.00,East,80,9.0,16.0,54,0.00,,,-99.99,,2013-03-21 14:02:00,
2013-03-21 10:12:00,24.0,9.0,-100.00,ENE,75,11.0,18.0,53,0.00,,,-99.99,,2013-03-21 14:12:00,
2013-03-21 10:22:00,23.0,9.0,-100.00,ENE,75,9.0,17.0,54,0.00,,,-99.99,,2013-03-21 14:22:00,
2013-03-21 10:32:00,24.0,10.0,-100.00,East,85,6.0,17.0,54,0.00,,,-99.99,,2013-03-21 14:32:00,
2013-03-21 10:42:00,25.0,9.0,-100.00,ENE,75,8.0,12.0,51,0.55,,,-99.99,,2013-03-21 14:42:00,
2013-03-21 10:52:00,24.0,8.0,-100.00,East,95,7.0,15.0,49,0.00,,,-99.99,,2013-03-21 14:52:00,
2013-03-21 11:03:00,25.0,8.0,-100.00,East,85,7.0,14.0,47,0.00,,,-99.99,,2013-03-21 15:03:00,
2013-03-21 11:12:00,24.0,8.0,-100.00,ESE,115,6.0,12.0,49,0.00,,,-99.99,,2013-03-21 15:12:00,
2013-03-21 11:22:00,25.0,8.0,-100.00,NE,50,7.0,12.0,48,0.00,,,-99.99,,2013-03-21 15:22:00,
2013-03-21 11:33:00,25.0,7.0,-100.00,NE,45,7.0,16.0,46,0.00,,,-99.99,,2013-03-21 15:33:00,
2013-03-21 11:42:00,25.0,9.0,-100.00,ENE,70,7.0,17.0,49,0.00,,,-99.99,,2013-03-21 15:42:00,
2013-03-21 11:53:00,26.0,9.0,-100.00,North,0,6.0,11.0,46,0.00,,,-99.99,,2013-03-21 15:53:00,
2013-03-21 12:03:00,25.0,7.0,-100.00,NE,50,6.0,15.0,46,0.00,,,-99.99,,2013-03-21 16:03:00,
2013-03-21 12:12:00,27.0,5.0,-100.00,NNE,30,7.0,14.0,38,0.00,,,-99.99,,2013-03-21 16:12:00,
2013-03-21 12:23:00,28.0,6.0,-100.00,SE,125,6.0,11.0,39,0.00,,,-99.99,,2013-03-21 16:23:00,
2013-03-21 12:33:00,28.0,6.0,-100.00,ESE,105,4.0,14.0,39,0.00,,,-99.99,,2013-03-21 16:33:00,
2013-03-21 12:42:00,28.0,7.0,-100.00,ESE,120,5.0,11.0,39,0.00,,,-99.99,,2013-03-21 16:42:00,
2013-03-21 12:52:00,28.0,6.0,-100.00,NE,50,7.0,13.0,38,0.00,,,-99.99,,2013-03-21 16:52:00,
2013-03-21 13:03:00,29.0,5.0,-100.00,East,85,7.0,11.0,35,0.55,,,-99.99,,2013-03-21 17:03:00,
2013-03-21 13:12:00,29.0,6.0,-100.00,East,80,6.0,11.0,36,0.00,,,-99.99,,2013-03-21 17:12:00,
2013-03-21 13:23:00,30.0,6.0,-100.00,NE,35,8.0,12.0,35,0.00,,,-99.99,,2013-03-21 17:23:00,
2013-03-21 13:33:00,30.0,5.0,-100.00,NNE,20,2.0,9.0,33,0.00,,,-99.99,,2013-03-21 17:33:00,
2013-03-21 13:43:00,30.0,5.0,-100.00,NE,45,6.0,12.0,33,0.00,,,-99.99,,2013-03-21 17:43:00,
2013-03-21 13:52:00,31.0,6.0,-100.00,ENE,60,7.0,11.0,34,0.55,,,-99.99,,2013-03-21 17:52:00,
2013-03-21 14:02:00,32.0,6.0,-100.00,NNE,25,2.0,11.0,33,0.00,,,-99.99,,2013-03-21 18:02:00,
2013-03-21 14:12:00,31.0,6.0,-100.00,ENE,60,7.0,12.0,33,0.55,,,-99.99,,2013-03-21 18:12:00,
2013-03-21 14:23:00,31.0,5.0,-100.00,ESE,115,7.0,16.0,33,0.00,,,-99.99,,2013-03-21 18:23:00,
2013-03-21 14:32:00,30.0,5.0,-100.00,SE,135,6.0,14.0,34,0.00,,,-99.99,,2013-03-21 18:32:00,
2013-03-21 14:42:00,31.0,6.0,-100.00,ENE,75,7.0,13.0,34,0.00,,,-99.99,,2013-03-21 18:42:00,
2013-03-21 14:52:00,31.0,6.0,-100.00,North,0,6.0,14.0,34,0.00,,,-99.99,,2013-03-21 18:52:00,
2013-03-21 15:02:00,31.0,6.0,-100.00,ESE,105,9.0,12.0,34,0.00,,,-99.99,,2013-03-21 19:02:00,
2013-03-21 15:12:00,31.0,7.0,-100.00,East,80,9.0,14.0,34,0.00,,,-99.99,,2013-03-21 19:12:00,
2013-03-21 15:22:00,31.0,7.0,-100.00,East,80,6.0,17.0,34,0.00,,,-99.99,,2013-03-21 19:22:00,
2013-03-21 15:32:00,33.0,7.0,-100.00,East,100,5.0,14.0,34,0.00,,,-99.99,,2013-03-21 19:32:00,
2013-03-21 15:42:00,35.0,8.0,-100.00,East,85,2.0,7.0,33,0.00,,,-99.99,,2013-03-21 19:42:00,
2013-03-21 15:52:00,33.0,8.0,-100.00,NE,35,7.0,13.0,35,0.55,,,-99.99,,2013-03-21 19:52:00,
2013-03-21 16:02:00,32.0,8.0,-100.00,ENE,75,2.0,10.0,35,0.00,,,-99.99,,2013-03-21 20:02:00,
2013-03-21 16:12:00,33.0,8.0,-100.00,East,95,4.0,12.0,35,0.00,,,-99.99,,2013-03-21 20:12:00,
2013-03-21 16:22:00,32.0,7.0,-100.00,ESE,105,2.0,9.0,35,0.00,,,-99.99,,2013-03-21 20:22:00,
2013-03-21 16:33:00,33.0,9.0,-100.00,ENE,75,2.0,7.0,35,0.00,,,-99.99,,2013-03-21 20:33:00,
2013-03-21 16:42:00,32.0,7.0,-100.00,SSE,150,2.0,12.0,34,0.00,,,-99.99,,2013-03-21 20:42:00,
2013-03-21 16:53:00,33.0,9.0,-100.00,ENE,75,6.0,10.0,36,0.00,,,-99.99,,2013-03-21 20:53:00,
2013-03-21 17:03:00,33.0,9.0,-100.00,East,85,5.0,9.0,35,0.00,,,-99.99,,2013-03-21 21:03:00,
2013-03-21 17:12:00,34.0,9.0,-100.00,ESE,120,3.0,6.0,35,0.00,,,-99.99,,2013-03-21 21:12:00,
2013-03-21 17:22:00,34.0,9.0,-100.00,North,10,3.0,9.0,35,0.00,,,-99.99,,2013-03-21 21:22:00,
2013-03-21 17:33:00,33.0,8.0,-100.00,ESE,105,6.0,12.0,34,0.00,,,-99.99,,2013-03-21 21:33:00,
2013-03-21 17:43:00,33.0,8.0,-100.00,SE,125,5.0,9.0,34,0.00,,,-99.99,,2013-03-21 21:43:00,
2013-03-21 17:53:00,34.0,9.0,-100.00,North,0,3.0,8.0,35,0.00,,,-99.99,,2013-03-21 21:53:00,
2013-03-21 18:03:00,33.0,9.0,-100.00,NE,55,6.0,10.0,35,0.00,,,-99.99,,2013-03-21 22:03:00,
2013-03-21 18:13:00,33.0,9.0,-100.00,NE,40,4.0,11.0,35,0.00,,,-99.99,,2013-03-21 22:13:00,
2013-03-21 18:23:00,33.0,9.0,-100.00,East,95,3.0,7.0,35,0.00,,,-99.99,,2013-03-21 22:23:00,
2013-03-21 18:33:00,33.0,8.0,-100.00,East,85,4.0,9.0,34,0.00,,,-99.99,,2013-03-21 22:33:00,
2013-03-21 18:42:00,33.0,9.0,-100.00,East,80,6.0,10.0,36,0.00,,,-99.99,,2013-03-21 22:42:00,
2013-03-21 18:52:00,33.0,9.0,-100.00,ESE,105,2.0,9.0,36,0.00,,,-99.99,,2013-03-21 22:52:00,
2013-03-21 19:02:00,33.0,10.0,-100.00,ESE,120,4.0,9.0,38,0.00,,,-99.99,,2013-03-21 23:02:00,
2013-03-21 19:12:00,33.0,10.0,-100.00,ESE,115,6.0,7.0,38,0.00,,,-99.99,,2013-03-21 23:12:00,
2013-03-21 19:22:00,33.0,9.0,-100.00,East,100,4.0,9.0,37,0.00,,,-99.99,,2013-03-21 23:22:00,
2013-03-21 19:33:00,33.0,10.0,-100.00,ENE,65,5.0,9.0,38,0.00,,,-99.99,,2013-03-21 23:33:00,
2013-03-21 19:42:00,32.0,10.0,-100.00,SE,140,2.0,9.0,38,0.00,,,-99.99,,2013-03-21 23:42:00,
2013-03-21 19:52:00,32.0,10.0,-100.00,East,100,2.0,6.0,39,0.00,,,-99.99,,2013-03-21 23:52:00,
2013-03-21 20:03:00,32.0,10.0,-100.00,SE,130,3.0,8.0,40,0.00,,,-99.99,,2013-03-22 00:03:00,
2013-03-21 20:12:00,32.0,10.0,-100.00,ESE,110,3.0,6.0,39,0.00,,,-99.99,,2013-03-22 00:12:00,
2013-03-21 20:22:00,32.0,10.0,-100.00,SE,130,2.0,5.0,39,0.00,,,-99.99,,2013-03-22 00:22:00,
2013-03-21 20:32:00,32.0,10.0,-100.00,ENE,70,4.0,6.0,40,0.00,,,-99.99,,2013-03-22 00:32:00,
2013-03-21 20:42:00,31.0,11.0,-100.00,South,180,2.0,4.0,42,0.00,,,-99.99,,2013-03-22 00:42:00,
2013-03-21 20:52:00,31.0,12.0,-100.00,South,185,1.0,4.0,43,0.00,,,-99.99,,2013-03-22 00:52:00,
2013-03-21 21:03:00,32.0,12.0,-100.00,South,180,2.0,4.0,43,0.00,,,-99.99,,2013-03-22 01:03:00,
2013-03-21 21:12:00,32.0,11.0,-100.00,ENE,65,1.0,4.0,41,0.00,,,-99.99,,2013-03-22 01:12:00,
2013-03-21 21:22:00,32.0,11.0,-100.00,East,100,2.0,6.0,41,0.00,,,-99.99,,2013-03-22 01:22:00,
2013-03-21 21:32:00,32.0,11.0,-100.00,ENE,60,2.0,4.0,41,0.00,,,-99.99,,2013-03-22 01:32:00,
2013-03-21 21:53:00,32.0,11.0,-100.00,ENE,65,2.0,6.0,42,0.00,,,-99.99,,2013-03-22 01:53:00,
2013-03-21 22:02:00,32.0,11.0,-100.00,ENE,70,4.0,7.0,42,0.00,,,-99.99,,2013-03-22 02:02:00,
2013-03-21 22:12:00,31.0,10.0,-100.00,NE,40,4.0,7.0,41,0.00,,,-99.99,,2013-03-22 02:12:00,
2013-03-21 22:22:00,31.0,11.0,-100.00,NE,50,1.0,6.0,41,0.00,,,-99.99,,2013-03-22 02:22:00,
2013-03-21 22:32:00,31.0,11.0,-100.00,NE,35,1.0,4.0,42,0.00,,,-99.99,,2013-03-22 02:32:00,
2013-03-21 22:43:00,31.0,10.0,-100.00,NNE,30,4.0,6.0,42,0.00,,,-99.99,,2013-03-22 02:43:00,
2013-03-21 22:52:00,31.0,11.0,-100.00,North,0,1.0,6.0,42,0.00,,,-99.99,,2013-03-22 02:52:00,
2013-03-21 23:02:00,31.0,11.0,-100.00,NNE,15,1.0,3.0,43,0.00,,,-99.99,,2013-03-22 03:02:00,
2013-03-21 23:12:00,30.0,11.0,-100.00,North,0,1.0,2.0,45,0.00,,,-99.99,,2013-03-22 03:12:00,
2013-03-21 23:22:00,29.0,12.0,-100.00,NW,315,1.0,2.0,48,0.00,,,-99.99,,2013-03-22 03:22:00,
2013-03-21 23:33:00,29.0,13.0,-100.00,NNW,345,1.0,3.0,51,0.00,,,-99.99,,2013-03-22 03:33:00,
2013-03-21 23:43:00,28.0,13.0,-100.00,NW,325,0.0,1.0,52,0.00,,,-99.99,,2013-03-22 03:43:00,
2013-03-21 23:53:00,28.0,14.0,-100.00,NNW,330,0.0,2.0,54,0.00,,,-99.99,,2013-03-22 03:53:00,